Weather History for KBML - January, 2012

Change the Weather History Date:

Sunday, January 15, 2012

  Actual Average Record
Temperature  
Mean Temperature -8 °F -  
Max Temperature 1 °F 20 °F 44 °F (2014)
Min Temperature -17 °F 0 °F -31 °F (2004)
Degree Days  
Heating Degree Days 73    
Moisture  
Dew Point -14 °F    
Average Humidity 70    
Maximum Humidity 84    
Minimum Humidity 56    
Precipitation  
Precipitation 0.00 in - - ()
Sea Level Pressure  
Sea Level Pressure 30.31 in    
Wind  
Wind Speed 2 mph (WNW)    
Max Wind Speed 10 mph    
Max Gust Speed 17 mph    
Visibility 10 miles    
Events      
Averages and records for this station are not official NWS values.
T = Trace of Precipitation, MM = Missing Value Source: NWS Daily Summary

Daily Weather History Graph

Daily Weather History Graph

Search for Another Location

Airport or City:

Trip Planner

Search our weather history database for the weather conditions in past years. The results will help you decide how hot, cold, wet, or windy it might be!

Date:

Astronomy

Jan. 15, 2012 Rise Set
Actual Time 7:18 AM EST 4:30 PM EST
Civil Twilight 6:45 AM EST 5:02 PM EST
Nautical Twilight 6:09 AM EST 5:38 PM EST
Astronomical Twilight 5:34 AM EST 6:13 PM EST
Moon No Moon Rise 10:14 AM EST (1/15)
Length of Visible Light 10h 16m
Length of Day
9h 11m
Waning Gibbous, 58% of the Moon is Illuminated
Jan 15
Waning Gibbous
Jan 16
Last Quarter
Jan 23
New
Jan 30
First Quarter
Feb 7
Full

Hourly Weather History & Observations

Time (EST) Temp. Windchill Dew Point Humidity Pressure Visibility Wind Dir Wind Speed Gust Speed Precip Events Conditions
12:52 AM -6.0 °F - -11.9 °F 75% 30.09 in 10.0 mi Calm Calm - N/A   Clear
1:52 AM -6.0 °F - -13.0 °F 72% 30.11 in 10.0 mi Calm Calm - N/A   Clear
2:52 AM -7.1 °F -15.9 °F -11.9 °F 79% 30.13 in 10.0 mi NNW 3.5 mph - N/A   Mostly Cloudy
3:52 AM -11.0 °F - -16.1 °F 78% 30.16 in 7.0 mi Calm Calm - N/A   Mostly Cloudy
4:04 AM -13.0 °F - -16.6 °F 84% 30.06 in 9.0 mi Calm Calm - N/A   Scattered Clouds
4:52 AM -14.1 °F - -18.9 °F 79% 30.19 in 10.0 mi Calm Calm - N/A   Clear
5:52 AM -16.1 °F - -20.9 °F 79% 30.22 in 8.0 mi Calm Calm - N/A   Clear
6:52 AM -17.0 °F - -22.0 °F 78% 30.25 in 10.0 mi Calm Calm - N/A   Clear
7:52 AM -14.1 °F - -18.9 °F 79% 30.27 in 10.0 mi Calm Calm - N/A   Clear
8:52 AM -6.0 °F -14.7 °F -13.0 °F 72% 30.30 in 10.0 mi Variable 3.5 mph - N/A   Clear
9:52 AM -4.0 °F -14.6 °F -14.1 °F 62% 30.33 in 10.0 mi Variable 4.6 mph - N/A   Clear
10:52 AM -2.0 °F -16.6 °F -14.1 °F 57% 30.33 in 10.0 mi WNW 8.1 mph - N/A   Clear
11:52 AM -0.0 °F -14.2 °F -11.9 °F 57% 30.31 in 10.0 mi WNW 8.1 mph - N/A   Clear
12:52 PM 1.0 °F -14.0 °F -11.0 °F 57% 30.32 in 10.0 mi West 9.2 mph - N/A   Mostly Cloudy
1:49 PM 1.4 °F -14.5 °F -11.2 °F 56% 30.22 in 10.0 mi West 10.4 mph 17.3 mph N/A   Partly Cloudy
1:52 PM 1.9 °F -11.8 °F -9.9 °F 58% 30.33 in 10.0 mi WNW 8.1 mph 17.3 mph N/A   Partly Cloudy
2:52 PM 1.9 °F -11.8 °F -9.9 °F 58% 30.36 in 10.0 mi West 8.1 mph - N/A   Mostly Cloudy
3:52 PM 1.0 °F -12.9 °F -9.9 °F 60% 30.40 in 10.0 mi West 8.1 mph 16.1 mph N/A   Clear
4:52 PM -0.0 °F -11.6 °F -9.9 °F 63% 30.43 in 10.0 mi West 5.8 mph - N/A   Clear
6:52 PM -4.0 °F -12.4 °F -11.9 °F 69% 30.49 in 10.0 mi Variable 3.5 mph - N/A   Partly Cloudy
7:52 PM -7.1 °F -15.9 °F -13.0 °F 75% 30.50 in 10.0 mi North 3.5 mph - N/A   Clear
8:52 PM -8.0 °F -16.9 °F -14.1 °F 75% 30.51 in 10.0 mi NW 3.5 mph - N/A   Clear
9:52 PM -9.9 °F - -16.1 °F 74% 30.51 in 10.0 mi Calm Calm - N/A   Clear
10:52 PM -14.1 °F - -18.9 °F 79% 30.52 in 10.0 mi Calm Calm - N/A   Clear
11:52 PM -11.9 °F - -16.1 °F 82% 30.53 in 10.0 mi Calm Calm - N/A   Clear